RADUGA-1 2 [-]

Last updated on Nov. 12, 2019, 4:19 a.m. UTC

1 21038U 90116A   19315.62701726 -.00000143  00000-0  00000+0 0  9999
2 21038  14.8199 357.3146 0006926  42.0464 317.5672  1.00216142105756
UTC
Height (km)
Latitude
Longitude
Inclination
Orbital Period
UTC large
Height (km)
Speed (km/s)
/
Latitude / Longitude
Inclination (degrees)
Orbital Period (minutes)
Azimuth
Elevation
Range (km)
Doppler Factor
iOS Compass Heading
iOS Angle

Next 30 passes for location: Hong Kong

Rise time Rise Azimuth (degrees) Set time Set Azimuth (degrees) Duration Max altitude (degrees)

No matching passes for this satellites